Regional Weather Roundup
Issued by NWS

Home | Current Version | Previous Version | Text Only | Print | Product List | Glossary Off
Versions: 1 2 3 4 5 6 7 8 9 10 11 12 13 14 15 16 17 18 19 20 21 22 23 24 25 26 27 28 29 30 31 32 33 34 35 36 37 38 39 40 41 42 43 44 45 46 47 48 49 50

000
ASUS45 KBOU 252207
RWRCO

WEATHER ROUNDUP FOR COLORADO
NATIONAL WEATHER SERVICE DENVER/BOULDER CO
400 PM MDT SAT APR 25 2015

NOTE: "FAIR" INDICATES FEW OR NO CLOUDS BELOW 12000 FEET WITH NO
SIGNIFICANT WEATHER AND/OR OBSTRUCTIONS TO VISIBILITY.

COZ001>005-013-030-031-252300-
...NORTHWEST COLORADO...

CITY           SKY/WX    TMP DP  RH WIND       PRES   REMARKS
CRAIG          MOSUNNY   53  32  44 CALM      29.77F
HAYDEN         PTSUNNY   48  30  49 CALM      29.79F
MEEKER         MOSUNNY   54  30  40 CALM      29.77F
MOUNT WERNER   NOT AVBL
STEAMBOAT SPGS SUNNY     50  32  49 NW3       29.79F
WALDEN         CLOUDY    50  23  34 S13G20    29.81F
$$

COZ006>008-011-252300-
...WEST CENTRAL VALLEYS...

CITY           SKY/WX    TMP DP  RH WIND       PRES   REMARKS
GRAND JUNCTION CLOUDY    57  37  47 SE9       29.73F
MONTROSE       PTSUNNY   52  41  66 N5        29.79F
EAGLE          PTSUNNY   55  34  44 SW10      29.81F
RIFLE          PTSUNNY   53  37  54 SE3       29.78F
DELTA          NOT AVBL
NUCLA          CLOUDY    50  43  76 MISG      29.81F
$$

COZ017>023-064>068-252300-
...SOUTHWEST COLORADO...

CITY           SKY/WX    TMP DP  RH WIND       PRES   REMARKS
DURANGO        PTSUNNY   56  34  43 MISG      29.83F
CORTEZ         LGT RAIN  58  38  47 S9G24     29.80F
PAGOSA SPRINGS PTSUNNY   52  34  50 SW10G20   29.88F
TELLURIDE      PTSUNNY   46  29  52 SE12G20   29.88S
WOLF CREEK PAS NOT AVBL
$$

COZ009-010-012-014-032>034-037-058>063-252300-
...CENTRAL COLORADO...

CITY           SKY/WX    TMP DP  RH WIND       PRES   REMARKS
ASPEN          PTSUNNY   48  33  56 NW8       29.80F
BUENA VISTA    PTSUNNY   54  22  28 SW3       29.80F
COPPER MTN     CLOUDY    34  28  80 W8        29.95S WCI  27
BERTHOUD PASS  HVY SNOW  23  18  80 W5        29.99S VSB<1/4 WCI  17
COTTONWOOD PAS PTSUNNY   46  21  36 SW3       29.88S
GUNNISON       PTSUNNY   52  30  43 NE6       29.85F
KREMMLING      PTSUNNY   50  32  50 E9        29.83F
LEADVILLE      PTSUNNY   44  23  43 VRB6      29.84F
MONARCH PASS   SNOW      32  28  86 W12       30.07F VSB 1/4 WCI  23
SALIDA         CLOUDY    52  34  50 CALM      29.90S
SUNLIGHT       CLOUDY    36  34  93 CALM      29.94F FOG
WILKERSON PASS MOSUNNY   39  21  48 SW7       29.95S
$$

COZ069>075-252300-
...SAN LUIS VALLEY/SANGRE DE CRISTO MOUNTAINS...

CITY           SKY/WX    TMP DP  RH WIND       PRES   REMARKS
ALAMOSA        PTSUNNY   60  23  24 S17G23    29.79F
LA VETA PASS   MOSUNNY   50  23  34 S8G22     29.91F
SAGUACHE       PTSUNNY   54  28  37 CALM      29.82F
$$

COZ035-036-038>040-252300-
...NORTHERN COLORADO FRONT RANGE...

CITY           SKY/WX    TMP DP  RH WIND       PRES   REMARKS
DENVER INTL AP CLOUDY    66  34  30 E23G30    29.71R
DMNS CITY PARK   N/A     62  28  26 N1G13     29.70R
AURORA         NOT AVBL
FRONT RANGE AP NOT AVBL
ERIE MUNI ARPT CLOUDY    64  31  29 NW6       29.70R
BOULDER MUN AP CLOUDY    63  32  31 NW5       29.70F
CENTENNIAL     CLOUDY    61  29  29 SE9       29.70S THUNDER
BROOMFIELD     NOT AVBL
FORT COLLINS   CLOUDY    61  37  41 W23       29.73R
LONGMONT       CLOUDY    66  37  34 W8        29.71F
$$

COZ041-046-047-076>085-087-088-252300-
...PIKES PEAK/PALMER DIVIDE AND SOUTHERN FOOTHILLS...

CITY           SKY/WX    TMP DP  RH WIND       PRES   REMARKS
COLO. SPRINGS  PTSUNNY   59  28  30 NW9G24    29.74F
A. F. ACADEMY  NOT AVBL
ELLICOTT       PTSUNNY  N/A N/A N/A W14G20    29.73R
FALCON         PTSUNNY   60  25  26 SE10G25   29.79S
FORT CARSON    NOT AVBL
LIMON          PTSUNNY   66  23  19 S16G26    29.70F
MONUMENT HILL  CLOUDY    52  30  43 S28G35    29.77R
TRINIDAD       PTSUNNY   69  22  16 SE12G17   29.68F
$$

COZ042>045-048>051-090-091-252300-
...NORTHEAST COLORADO...

CITY           SKY/WX    TMP DP  RH WIND       PRES   REMARKS
GREELEY ARPT   CLOUDY    68  30  24 SE12      29.69S
AKRON          PTSUNNY   69  35  28 E10G22    29.69F
BURLINGTON     MOSUNNY   70  37  29 E9        29.71F
WRAY           SUNNY     71  39  31 E6        29.69S
STERLING       PTSUNNY   70  37  30 SE8       29.66F
HOLYOKE        SUNNY     73  45  35 E7        29.69F
FORT MORGAN    PTSUNNY   69  28  21 SE8       29.68F
$$

COZ086-089-092>099-252300-
...SOUTHEAST COLORADO...

CITY           SKY/WX    TMP DP  RH WIND       PRES   REMARKS
PUEBLO         PTSUNNY   71  16  12 SE6       29.64F
LA JUNTA       MOSUNNY   76  24  14 SE18      29.64F
LAMAR          MOSUNNY   77  27  15 E10       29.63F
SPRINGFIELD      N/A     71  27  19 SE16      29.67F
$$



USA.gov is the U.S. government's official web portal to all federal, state and local government web resources and services.